Kezdőlap
METAR-TAF:

METAR-TAF

Repülőterek :

Omaha, Nebraska, Amerikai Egyesült Államok

földrajzi szélesség: 41-11-45N, földrajzi hosszúság: 096-06-44W, magasság: 320 m

Jelenlegi meteorológiai megfigyelések

A jelentés 26 perccel ezelõtt készült, 07:15 UTC
Szélcsend
Hőmérséklet 23°C
Páratartalom 94%
Légköri nyomás 1014 hPa
Látótávolság: 11.3 km
Szakadozott felhőzet 2000 lábon
Szakadozott felhőzet 3200 lábon
Borult 6000 lábon
szitálás

METAR: KMLE 070715Z AUTO 00000KT 7SM DZ BKN020 BKN032 OVC060 23/22 A2995 RMK AO2 LTG DSNT SE AND S T02320219

Idő: 02:41 (07:41 UTC)


TAF: hiányzik

Meteorológiai megfigyelések és előrejelzések több, mint 4000 repülőtéren (METAR és TAF jelentéseket).

A térképen piros és sárga pontok jelzik az elérhető meteorológiai állomásokat.

Mozgassa az egeret a pont fölött, hogy megjelenjen az állomás neve.

Azután kattintson az időjárási megfigyelések és előrejelzések megtekintéséhez.

A térkép megváltoztatása: kattintson a fekete keresztel jelölt zöld gombra ráközelítéshez, a vonallal jelölt zöld gombra távolításhoz, vagy a zöld nyilakra a szomszédos térképek eléréséhez.


METAR-TAF: